DW0243 Weather Reports


time (UTC)temp
C
wind
direction
speed
KPH
gust
KPH
rain 1hr
cm
rain 24hr
cm
rain mn
cm
humidity
%
barometer
mb
20260905232509 10 250 0.0 3.2 0.00 0.03 0.00 94 1027.1
20260905224508 10 251 0.0 0.0 0.00 0.03 0.00 93 1026.6
20260905223506 11 251 0.0 0.0 0.00 0.03 0.00 93 1026.7
20260905222520 11 251 0.0 0.0 0.00 0.03 0.00 93 1026.6
20260905221508 11 251 0.0 0.0 0.00 0.03 0.00 92 1026.6
20260905220508 11 251 0.0 0.0 0.00 0.03 0.00 92 1026.4
20260905214518 12 251 0.0 0.0 0.00 0.03 0.03 91 1026.4
20260905213508 12 251 0.0 0.0 0.00 0.03 0.03 91 1026.3
20260905212506 12 251 0.0 0.0 0.00 0.05 0.03 91 1026.3
20260905205511 13 251 0.0 0.0 0.00 0.05 0.03 89 1026.0
20260905204507 13 251 0.0 0.0 0.00 0.05 0.03 87 1026.0
20260905203504 13 251 0.0 0.0 0.00 0.05 0.03 87 1026.0
20260905202503 13 251 0.0 4.8 0.00 0.05 0.03 86 1026.0
20260905201514 14 258 0.0 0.0 0.00 0.05 0.03 84 1025.9
20260905200504 15 258 0.0 0.0 0.00 0.05 0.03 83 1025.8
20260905194504 15 258 0.0 4.8 0.00 0.05 0.03 80 1025.5
20260905193508 16 258 1.6 4.8 0.00 0.08 0.03 78 1025.5
20260905192504 16 258 0.0 3.2 0.00 0.13 0.03 78 1025.5
20260905190506 16 257 6.4 11.3 0.00 0.20 0.03 76 1025.2
20260905184507 17 302 3.2 11.3 0.00 0.46 0.03 74 1024.9
20260905183505 17 274 3.2 11.3 0.00 0.56 0.03 74 1025.0
20260905182505 17 253 3.2 14.5 0.00 0.61 0.03 73 1024.9
20260905181505 17 273 4.8 14.5 0.00 0.61 0.03 72 1024.8
20260905180507 18 257 4.8 11.3 0.00 0.64 0.03 72 1024.5
20260905174505 18 260 6.4 14.5 0.00 0.64 0.03 71 1024.4
20260905172507 18 257 6.4 16.1 0.00 0.64 0.03 69 1024.2
20260905171506 18 257 8.0 14.5 0.00 0.64 0.03 68 1024.2
20260905170503 18 259 3.2 12.9 0.00 0.64 0.03 68 1024.1
20260905165502 18 297 1.6 6.4 0.00 0.64 0.03 68 1024.1
20260905164518 18 302 3.2 11.3 0.00 0.64 0.03 66 1024.0
20260905162503 19 252 9.7 17.7 0.00 0.64 0.03 63 1023.7
20260905160505 20 269 8.0 17.7 0.00 0.64 0.03 61 1023.4
20260905155505 20 286 8.0 24.1 0.00 0.64 0.03 60 1023.4
20260905154512 20 286 12.9 22.5 0.00 0.64 0.03 60 1023.3
20260905153506 20 256 3.2 22.5 0.00 0.64 0.03 60 1023.2
20260905152507 20 274 3.2 17.7 0.00 0.64 0.03 61 1023.0
20260905151510 20 277 3.2 12.9 0.00 0.64 0.03 55 1023.0
20260905150514 20 263 4.8 17.7 0.00 0.64 0.03 61 1023.0
20260905145508 20 307 6.4 16.1 0.00 0.64 0.03 62 1023.0
20260905144505 20 245 8.0 20.9 0.00 0.64 0.03 62 1023.0
20260905143504 20 259 14.5 27.4 0.00 0.64 0.03 61 1023.1
20260905142504 20 284 14.5 24.1 0.00 0.64 0.03 60 1023.1
20260905141506 19 246 8.0 24.1 0.00 0.64 0.03 64 1023.0
20260905134507 20 299 4.8 12.9 0.00 0.64 0.03 64 1022.9
20260905133506 20 254 6.4 22.5 0.00 0.64 0.03 62 1022.9
20260905132503 20 260 11.3 24.1 0.00 0.64 0.03 61 1022.9
20260905131517 19 245 6.4 19.3 0.00 0.64 0.03 65 1022.9
20260905125505 19 259 14.5 29.0 0.00 0.64 0.03 61 1022.9
20260905124505 20 257 6.4 17.7 0.00 0.64 0.03 62 1022.7
20260905123504 20 287 12.9 22.5 0.00 0.64 0.03 61 1022.6
20260905121516 20 286 11.3 29.0 0.00 0.64 0.03 61 1022.5
20260905120504 20 238 9.7 29.0 0.00 0.64 0.03 61 1022.3
20260905115503 20 217 12.9 29.0 0.00 0.64 0.03 61 1022.3
20260905113504 19 225 12.9 27.4 0.00 0.64 0.03 62 1022.4
20260905111509 19 289 6.4 22.5 0.00 0.64 0.03 65 1022.2
20260905110504 18 275 16.1 25.7 0.00 0.64 0.03 67 1022.3
20260905105506 18 247 12.9 22.5 0.00 0.64 0.03 71 1022.2
20260905103507 18 286 6.4 16.1 0.00 0.64 0.03 72 1022.2
20260905102510 17 259 4.8 19.3 0.00 0.64 0.03 74 1022.1
20260905101506 17 265 6.4 14.5 0.00 0.64 0.03 73 1022.3
20260905095506 18 250 6.4 17.7 0.00 0.64 0.03 74 1022.2
20260905094505 17 243 12.9 29.0 0.00 0.64 0.03 73 1022.1
20260905093513 17 263 6.4 19.3 0.00 0.64 0.03 74 1021.9
20260905092507 17 292 6.4 17.7 0.00 0.64 0.03 78 1021.9
20260905091508 16 267 6.4 14.5 0.00 0.64 0.03 81 1021.9
20260905090505 16 302 9.7 16.1 0.00 0.64 0.03 81 1021.9
20260905085504 16 271 3.2 12.9 0.00 0.64 0.03 82 1021.8
20260905084509 16 309 6.4 17.7 0.00 0.64 0.03 80 1021.8
20260905082504 16 238 4.8 19.3 0.00 0.64 0.03 83 1021.5
20260905081508 16 262 9.7 17.7 0.00 0.64 0.03 84 1021.5
20260905080503 16 252 6.4 12.9 0.00 0.64 0.03 86 1021.3
20260905075504 16 266 8.0 14.5 0.00 0.64 0.03 87 1021.2
20260905074506 16 263 9.7 19.3 0.00 0.64 0.03 91 1021.0
20260905073505 15 227 1.6 8.0 0.00 0.64 0.03 93 1021.0
20260905072504 14 219 3.2 9.7 0.00 0.64 0.03 90 1020.8
20260905070504 13 252 0.0 0.0 0.00 0.64 0.03 90 1020.7
20260905063505 12 252 0.0 0.0 0.00 0.64 0.03 91 1020.6
20260905062504 11 252 0.0 0.0 0.00 0.64 0.03 91 1020.5
20260905061506 11 252 0.0 0.0 0.00 0.64 0.03 92 1020.3
20260905060508 11 252 0.0 0.0 0.00 0.64 0.03 92 1020.3
20260905055503 11 252 0.0 0.0 0.00 0.64 0.03 92 1020.3
20260905054505 11 252 0.0 0.0 0.00 0.64 0.03 92 1020.2
20260905053507 11 252 0.0 0.0 0.00 0.64 0.03 93 1020.1
20260905052511 11 252 0.0 0.0 0.00 0.64 0.03 93 1019.8
20260905051507 11 252 0.0 0.0 0.00 0.64 0.03 93 1019.5
20260905050504 11 252 0.0 0.0 0.00 0.64 0.03 93 1019.3
20260905045504 11 252 0.0 0.0 0.00 0.64 0.03 93 1019.1
20260905044506 11 252 0.0 0.0 0.03 0.64 0.03 93 1019.0
20260905043503 11 252 0.0 0.0 0.03 0.64 0.03 93 1019.0
20260905042504 11 252 0.0 0.0 0.03 0.64 0.03 94 1018.7
20260905041504 11 252 0.0 0.0 0.03 0.64 0.03 94 1018.6
20260905040510 12 252 0.0 0.0 0.03 0.64 0.03 94 1018.6
20260905035503 12 252 0.0 0.0 0.03 0.61 0.03 94 1018.6
20260905034506 12 252 0.0 0.0 0.00 0.61 0.00 94 1018.6
20260905033506 12 252 0.0 0.0 0.00 0.61 0.00 94 1018.7
20260905032507 12 252 0.0 0.0 0.00 0.61 0.00 94 1018.5
20260905030504 12 252 0.0 0.0 0.00 0.61 0.00 94 1018.4
20260905025506 13 252 0.0 0.0 0.00 0.61 0.00 94 1018.5
20260905024506 13 252 0.0 0.0 0.00 0.61 0.00 94 1018.2
20260905023512 13 252 0.0 0.0 0.00 0.61 0.00 94 1018.1
20260905022505 13 252 0.0 0.0 0.00 0.61 0.00 94 1018.0
20260905021515 13 252 0.0 3.2 0.00 0.61 0.00 94 1018.0
20260905020510 14 252 0.0 4.8 0.00 0.61 0.00 93 1018.0
20260905015514 14 252 0.0 3.2 0.00 0.61 0.00 93 1017.9
20260905014512 14 252 0.0 8.0 0.00 0.61 0.00 93 1017.8
20260905013508 14 253 1.6 6.4 0.00 0.61 0.00 93 1017.7
20260905012507 14 254 3.2 4.8 0.00 0.61 0.00 93 1017.7
20260905011511 15 254 1.6 8.0 0.00 0.61 0.00 93 1017.5
20260905003503 15 254 8.0 14.5 0.00 0.61 0.00 92 1017.7
20260905002505 15 246 4.8 12.9 0.00 0.61 0.00 93 1017.7
20260905000506 15 240 0.0 4.8 0.00 0.61 0.00 93 1017.7
20260904234506 15 257 3.2 14.5 0.00 0.61 0.00 93 1017.5